EUTELSAT HOTBIRD 13F

Last updated on Sun Aug 31 2025 00:02:51 GMT+0000 (Coordinated Universal Time)

1 54048U 22134A 25241.88651215 .00000091 00000+0 00000+0 0 9991 2 54048 0.0522 295.7717 0001817 69.7287 304.9749 1.00272366 10459
UTC large
Height (km)
Speed (km/s)
/
Latitude / Longitude
Inclination (degrees)
Orbital Period (minutes)
Azimuth
Elevation
Range (km)
Doppler Factor

Next 0 passes for location: London (51.5072 / 0.1276)

Sorry there are no passes over London.